Temp
61 66 75 75 75 75 75 75 75 75 75 75 74 75 74 74 74 75 75 75 74 75 73 73 73 73 73 74 74 75 75 75 74 73 73 73 75 76 75 76 74 73 76
64 68 75 75 74 75 74 74 75 74 74 73 75 75 75 74 74 74 74 74 74 74 73 72 72 72 72 73 73 73 74 74 73 72 72 70 73 75 75 75 75 74 76
66 69 71 75 75 74 74 74 74 74 74 73 75 74 74 74 74 73 74 74 74 73 73 72 71 71 71 71 72 73 73 72 72 71 70 62 65 74 74 74 75 75 75
67 68 68 74 74 73 73 73 73 74 73 74 74 74 74 73 73 74 73 73 73 73 72 71 71 71 70 70 71 72 73 72 71 69 65 66 68 74 75 74 74 74 74
66 67 69 74 74 73 72 72 73 73 73 73 73 73 72 72 72 72 72 72 72 72 71 71 71 70 70 70 71 72 72 71 70 64 61 65 64 73 73 73 73 73 73
64 65 71 73 73 73 72 72 72 72 72 72 72 71 71 71 71 71 71 71 71 70 70 70 70 70 70 70 70 70 71 70 66 58 59 61 65 73 73 72 73 73 72
62 64 68 73 73 72 72 71 71 71 71 71 70 70 70 70 70 70 70 70 70 70 70 70 70 70 70 69 69 70 70 68 59 57 58 59 65 71 72 72 72 71 72
63 64 67 72 73 72 72 71 71 70 71 70 69 69 69 68 68 69 69 69 69 69 69 68 69 69 69 69 69 69 70 68 60 57 57 58 70 71 71 71 72 72 71
64 64 63 65 69 72 71 71 70 70 70 69 69 68 68 67 68 67 67 68 68 68 68 67 67 68 68 69 69 69 69 67 54 56 61 58 70 70 70 70 70 71 70
60 62 60 61 63 62 63 70 70 69 69 69 68 68 67 67 67 67 67 67 67 67 67 67 67 67 67 67 68 69 69 64 53 55 55 58 69 70 70 69 69 70 70
60 59 59 59 59 60 60 64 68 69 69 69 67 68 65 55 55 59 63 67 67 67 67 67 67 67 67 66 67 67 66 53 52 53 54 65 68 69 69 69 68 69 69
56 56 58 58 57 58 65 59 57 59 57 57 58 55 53 52 52 59 61 67 67 67 67 67 67 68 63 53 51 60 52 52 51 52 53 66 67 68 68 68 68 68 68
58 59 59 57 57 57 60 55 54 54 53 53 54 53 52 54 50 52 50 51 51 59 53 55 54 52 51 51 51 51 52 52 50 51 57 66 67 67 68 67 68 68 68
57 59 60 58 58 57 58 55 54 53 52 50 52 53 50 49 49 49 48 49 49 49 49 48 48 50 50 52 51 52 52 51 51 51 51 65 67 68 68 68 68 68 67
57 59 58 57 57 58 54 53 52 52 53 52 52 53 51 50 50 49 49 48 48 48 48 49 49 50 50 51 52 52 52 52 52 51 49 62 67 68 68 68 68 68 68
60 60 59 59 58 57 55 53 53 52 53 52 52 52 54 51 50 50 50 50 49 49 49 49 49 49 49 49 50 52 52 51 51 51 51 50 65 68 69 69 69 68 68
59 62 59 60 58 56 56 54 53 53 54 52 52 53 53 53 51 52 50 49 49 49 50 49 49 49 48 50 48 50 51 51 51 52 52 50 52 65 68 68 69 69 69
62 59 61 66 60 57 55 54 54 53 52 52 52 52 54 54 53 51 50 50 50 49 49 48 48 48 47 46 46 48 48 49 51 51 52 51 50 53 59 67 68 68 68
62 61 60 60 58 58 55 54 53 54 52 52 52 52 54 55 55 51 50 50 51 49 48 48 48 46 46 47 48 49 49 49 50 56 52 52 51 52 49 58 66 68 68
62 62 63 61 60 57 55 53 51 51 51 51 52 52 54 54 55 52 51 51 51 49 48 47 46 46 46 46 52 52 50 51 48 46 48 52 50 51 50 50 50 54 66
58 59 60 59 56 56 51 50 49 50 50 50 51 54 55 54 55 52 50 50 50 49 49 48 47 46 46 45 45 45 46 46 46 46 47 47 49 51 50 49 48 48 51
60 60 59 60 57 58 59 52 52 51 51 53 53 54 55 55 54 53 51 50 50 48 48 47 46 45 44 45 46 41 41 45 48 49 47 48 47 48 50 51 50 49 48
58 59 60 60 59 59 54 52 51 51 50 50 51 51 54 55 54 53 53 51 50 48 48 48 47 45 45 44 45 46 41 40 40 46 47 47 47 46 47 48 50 50 49
63 60 61 60 59 59 55 54 53 52 52 50 52 52 54 54 54 54 54 52 51 49 48 48 50 46 45 44 43 48 44 44 42 41 45 46 48 49 47 47 48 50 50
63 59 59 59 59 59 57 57 55 51 51 51 50 52 52 53 53 54 54 53 51 49 49 49 48 46 45 45 44 44 42 41 41 42 43 42 45 48 48 48 48 48 50
58 58 57 58 58 56 56 54 54 53 52 50 50 50 50 51 52 53 54 52 52 50 50 50 49 48 47 46 45 44 46 44 41 39 38 39 44 48 46 50 47 47 48
MSLP
1022.77 1022.40 1022.43 1022.57 1022.77 1022.77 1022.74 1022.65 1022.60 1022.66 1022.56 1022.63 1022.69 1022.37 1022.50 1022.39 1022.30 1021.78 1021.76 1021.70 1021.48 1021.31 1021.51 1021.46 1021.40 1021.21 1020.90 1020.55 1020.27 1020.03 1019.70 1019.59 1019.74 1019.65 1019.46 1019.08 1018.63 1018.49 1018.29 1017.97 1017.90 1017.66 1017.42
1022.16 1022.31 1022.30 1022.61 1022.70 1022.61 1022.88 1022.88 1022.71 1022.83 1022.80 1022.92 1022.75 1022.53 1022.51 1022.51 1022.57 1022.37 1022.21 1021.95 1021.92 1021.65 1021.82 1021.91 1021.79 1021.71 1021.58 1021.10 1020.82 1020.82 1020.31 1020.21 1020.25 1020.18 1019.87 1019.71 1019.22 1018.78 1018.60 1018.34 1018.21 1017.99 1017.95
1022.05 1022.18 1022.39 1022.54 1022.51 1022.80 1022.92 1023.03 1022.87 1022.97 1022.97 1023.06 1022.83 1022.81 1022.80 1022.70 1022.54 1022.73 1022.38 1022.19 1022.23 1022.17 1022.17 1022.23 1022.14 1022.02 1021.82 1021.74 1021.50 1021.09 1020.74 1020.80 1020.71 1020.68 1020.47 1020.45 1019.89 1019.22 1019.01 1018.68 1018.64 1018.54 1018.49
1021.83 1022.16 1022.51 1022.57 1022.61 1022.93 1023.10 1023.13 1023.18 1023.06 1023.20 1023.17 1023.07 1022.99 1023.03 1023.03 1022.93 1022.74 1022.73 1022.59 1022.52 1022.55 1022.67 1022.63 1022.46 1022.22 1022.07 1021.87 1021.67 1021.47 1021.23 1021.33 1021.37 1021.20 1021.12 1020.68 1020.29 1019.74 1019.41 1019.25 1019.14 1019.02 1019.03
1021.98 1022.17 1022.40 1022.62 1022.75 1023.06 1023.26 1023.34 1023.37 1023.35 1023.39 1023.44 1023.38 1023.33 1023.37 1023.35 1023.28 1023.12 1023.10 1023.03 1022.93 1022.85 1022.84 1022.75 1022.62 1022.50 1022.43 1022.38 1022.21 1022.06 1021.89 1021.85 1021.69 1021.77 1021.54 1021.03 1020.71 1020.24 1020.09 1019.99 1019.81 1019.63 1019.55
1022.07 1022.19 1022.28 1022.67 1022.85 1023.03 1023.33 1023.47 1023.58 1023.54 1023.61 1023.66 1023.69 1023.76 1023.70 1023.64 1023.63 1023.51 1023.37 1023.34 1023.30 1023.26 1023.08 1023.01 1023.01 1023.01 1022.96 1022.86 1022.73 1022.53 1022.18 1022.13 1022.32 1022.20 1021.94 1021.64 1021.09 1020.66 1020.47 1020.44 1020.23 1020.06 1020.13
1022.22 1022.30 1022.36 1022.62 1022.90 1023.15 1023.39 1023.60 1023.71 1023.76 1023.84 1023.93 1024.11 1024.13 1024.02 1023.97 1023.93 1023.86 1023.65 1023.59 1023.55 1023.47 1023.39 1023.33 1023.26 1023.18 1023.09 1023.03 1022.90 1022.78 1022.64 1022.79 1022.81 1022.64 1022.41 1022.13 1021.53 1021.26 1020.97 1020.73 1020.61 1020.51 1020.45
1022.08 1022.40 1022.45 1022.66 1022.88 1023.17 1023.41 1023.68 1023.82 1023.95 1023.91 1024.06 1024.15 1024.18 1024.19 1024.19 1024.19 1024.04 1023.91 1023.87 1023.79 1023.67 1023.67 1023.62 1023.49 1023.39 1023.25 1023.24 1023.23 1023.12 1022.99 1023.00 1023.04 1022.93 1022.72 1022.47 1021.76 1021.60 1021.48 1021.27 1021.05 1020.94 1020.72
1022.01 1022.34 1022.52 1022.70 1022.87 1023.14 1023.39 1023.64 1023.77 1023.92 1023.99 1024.02 1024.08 1024.21 1024.21 1024.29 1024.30 1024.25 1024.08 1023.92 1023.92 1023.83 1023.77 1023.73 1023.67 1023.65 1023.59 1023.56 1023.44 1023.27 1023.10 1023.19 1023.47 1023.35 1023.08 1022.79 1022.12 1021.92 1021.90 1021.82 1021.57 1021.45 1021.23
1022.14 1022.23 1022.51 1022.70 1022.89 1023.23 1023.37 1023.53 1023.70 1023.86 1023.98 1024.02 1024.10 1024.17 1024.21 1024.24 1024.27 1024.17 1024.04 1024.00 1023.92 1023.94 1023.91 1023.83 1023.81 1023.82 1023.83 1023.74 1023.60 1023.42 1023.25 1023.53 1023.65 1023.56 1023.31 1023.06 1022.45 1022.15 1022.17 1022.14 1021.88 1021.63 1021.49
1022.30 1022.27 1022.43 1022.64 1022.91 1023.15 1023.39 1023.48 1023.53 1023.75 1023.88 1023.95 1024.01 1024.05 1024.10 1024.36 1024.38 1024.27 1024.19 1024.04 1023.94 1023.96 1023.90 1023.90 1023.87 1023.88 1023.86 1023.84 1023.69 1023.53 1023.45 1023.77 1023.80 1023.66 1023.39 1022.99 1022.72 1022.38 1022.23 1022.11 1022.17 1021.90 1021.68
1022.20 1022.35 1022.35 1022.52 1022.82 1023.10 1023.11 1023.39 1023.63 1023.79 1023.95 1024.07 1024.09 1024.20 1024.36 1024.45 1024.44 1024.22 1024.23 1023.96 1023.95 1023.92 1023.92 1023.90 1023.88 1023.83 1023.94 1024.16 1024.07 1023.71 1023.83 1023.76 1023.72 1023.54 1023.37 1022.93 1022.82 1022.62 1022.42 1022.17 1022.17 1022.06 1021.78
1021.57 1021.97 1022.11 1022.32 1022.56 1022.87 1022.97 1023.38 1023.69 1023.82 1024.02 1024.17 1024.18 1024.24 1024.42 1024.44 1024.40 1024.29 1024.47 1024.44 1024.34 1024.16 1024.34 1024.29 1024.35 1024.32 1024.33 1024.22 1024.13 1023.99 1023.81 1023.74 1023.64 1023.43 1023.23 1022.87 1022.74 1022.59 1022.50 1022.35 1022.15 1022.01 1021.86
1021.21 1021.35 1021.53 1021.93 1022.29 1022.60 1022.78 1023.20 1023.44 1023.80 1023.97 1024.17 1024.10 1024.14 1024.46 1024.57 1024.47 1024.53 1024.60 1024.45 1024.51 1024.45 1024.55 1024.61 1024.65 1024.45 1024.36 1024.15 1024.10 1023.90 1023.64 1023.55 1023.38 1023.24 1023.16 1022.67 1022.44 1022.39 1022.29 1022.20 1022.07 1021.99 1021.93
1020.70 1020.81 1021.12 1021.50 1021.88 1022.21 1022.71 1022.94 1023.28 1023.54 1023.59 1023.66 1023.91 1023.92 1024.13 1024.17 1024.24 1024.31 1024.31 1024.33 1024.40 1024.44 1024.48 1024.46 1024.47 1024.34 1024.31 1024.10 1023.88 1023.75 1023.52 1023.40 1023.15 1022.97 1022.84 1022.46 1022.17 1022.06 1022.00 1021.94 1021.89 1021.86 1021.83
1020.11 1020.34 1020.54 1021.00 1021.30 1021.80 1022.31 1022.57 1022.87 1023.12 1023.19 1023.50 1023.62 1023.50 1023.58 1023.74 1023.91 1024.04 1024.04 1024.10 1024.18 1024.19 1024.11 1024.14 1024.13 1024.16 1024.12 1024.06 1023.80 1023.52 1023.35 1023.07 1022.91 1022.72 1022.50 1022.39 1021.88 1021.67 1021.61 1021.55 1021.55 1021.54 1021.50
1019.36 1019.61 1020.03 1020.34 1020.81 1021.25 1021.60 1022.03 1022.44 1022.64 1022.83 1023.12 1023.15 1023.19 1023.22 1023.38 1023.51 1023.50 1023.76 1023.91 1023.87 1023.85 1023.82 1023.88 1023.88 1023.89 1024.01 1023.81 1023.77 1023.37 1023.04 1022.76 1022.48 1022.24 1022.08 1021.90 1021.75 1021.39 1021.23 1021.20 1021.13 1021.10 1021.08
1018.65 1019.19 1019.50 1019.77 1020.36 1020.83 1021.23 1021.59 1021.94 1022.26 1022.57 1022.66 1022.76 1022.75 1022.78 1022.85 1023.06 1023.27 1023.49 1023.55 1023.42 1023.55 1023.67 1023.80 1023.85 1023.95 1023.87 1023.84 1023.57 1023.13 1022.77 1022.46 1022.10 1021.87 1021.60 1021.45 1021.49 1021.31 1021.05 1020.68 1020.72 1020.72 1020.70
1017.79 1018.43 1019.09 1019.49 1019.91 1020.42 1020.81 1021.16 1021.61 1021.91 1022.25 1022.21 1022.28 1022.42 1022.40 1022.50 1022.65 1022.98 1023.09 1023.10 1023.10 1023.28 1023.46 1023.63 1023.69 1023.95 1023.88 1023.55 1023.21 1022.79 1022.25 1021.90 1021.51 1021.13 1021.05 1020.90 1020.78 1020.70 1020.78 1020.63 1020.31 1020.14 1020.09
1017.10 1017.64 1018.26 1018.92 1019.48 1019.99 1020.47 1021.07 1021.62 1021.84 1021.90 1021.90 1021.94 1021.98 1021.94 1022.07 1022.17 1022.48 1022.62 1022.74 1022.85 1023.12 1023.26 1023.55 1023.70 1023.74 1023.68 1023.45 1023.08 1022.55 1021.75 1021.00 1020.79 1020.83 1020.50 1020.24 1020.16 1020.23 1020.26 1020.34 1020.30 1020.14 1019.85
1016.77 1017.26 1017.81 1018.51 1018.96 1019.70 1020.49 1021.20 1021.58 1021.72 1021.69 1021.64 1021.52 1021.39 1021.44 1021.54 1021.64 1021.93 1022.17 1022.34 1022.50 1022.81 1022.82 1023.12 1023.34 1023.46 1023.44 1023.23 1023.23 1022.41 1021.30 1020.64 1020.47 1020.31 1020.07 1019.92 1019.81 1019.81 1019.88 1020.05 1020.11 1020.01 1019.90
1016.03 1016.63 1017.28 1017.81 1018.40 1018.99 1019.63 1020.13 1020.55 1020.90 1020.99 1020.81 1020.66 1020.78 1020.88 1021.04 1021.19 1021.46 1021.69 1021.89 1022.08 1022.42 1022.53 1022.79 1023.10 1023.40 1023.43 1023.22 1023.52 1023.54 1022.56 1021.18 1020.48 1020.01 1019.98 1019.83 1019.81 1019.75 1019.57 1019.51 1019.53 1019.46 1019.51
1015.44 1015.89 1016.50 1017.06 1017.66 1018.28 1018.84 1019.63 1020.30 1020.55 1020.75 1020.79 1020.60 1020.54 1020.38 1020.53 1020.65 1020.85 1021.01 1021.31 1021.50 1021.79 1021.94 1022.13 1022.44 1023.01 1023.21 1023.19 1023.26 1023.53 1023.24 1022.92 1022.14 1020.55 1019.93 1019.88 1019.89 1019.88 1019.46 1019.35 1019.18 1019.11 1018.94
1014.53 1015.17 1015.68 1016.35 1017.05 1017.68 1018.31 1019.02 1019.57 1019.95 1020.34 1020.17 1020.03 1020.02 1020.04 1020.05 1020.14 1020.23 1020.38 1020.60 1020.80 1021.10 1021.40 1021.38 1021.61 1022.07 1022.64 1022.94 1023.10 1022.83 1022.91 1023.18 1023.23 1022.04 1020.66 1020.17 1019.79 1019.78 1019.61 1019.30 1019.07 1018.69 1018.50
1013.90 1014.51 1015.15 1015.78 1016.46 1016.98 1017.70 1018.19 1018.81 1019.37 1019.44 1019.44 1019.72 1019.85 1019.91 1019.85 1019.79 1019.74 1019.82 1019.96 1020.21 1020.48 1020.57 1020.80 1021.08 1021.44 1021.69 1022.04 1022.43 1022.65 1022.94 1023.01 1023.23 1023.56 1021.86 1020.57 1019.96 1019.39 1019.08 1018.93 1018.52 1018.18 1017.75
1013.33 1014.09 1014.78 1015.40 1015.83 1016.38 1017.05 1017.60 1018.09 1018.64 1019.03 1019.43 1019.56 1019.75 1019.59 1019.50 1019.38 1019.23 1019.25 1019.37 1019.44 1019.76 1019.97 1020.06 1020.33 1020.66 1020.94 1021.24 1021.58 1021.91 1022.09 1022.38 1022.55 1022.76 1022.69 1021.50 1020.49 1018.80 1018.82 1018.41 1018.38 1017.96 1017.61
Wind_Speed
4 6 12 12 12 10 10 9 7 9 10 11 9 11 10 13 9 14 12 12 10 16 14 15 14 14 14 13 13 15 14 13 18 16 17 18 15 17 15 15 18 10 19
8 7 14 11 11 11 8 6 8 10 10 10 8 9 10 12 11 11 10 11 13 14 14 14 14 14 12 12 14 13 13 17 14 14 16 16 14 15 15 14 16 15 18
9 7 8 12 11 11 9 9 7 9 9 9 10 9 11 10 11 10 10 12 12 12 13 13 14 14 13 11 11 12 14 16 16 14 15 6 8 12 15 15 14 16 16
10 8 6 11 11 11 8 10 7 8 7 8 9 9 10 10 9 10 10 10 11 12 12 12 13 14 13 11 11 11 13 14 13 16 7 6 6 16 13 17 17 15 15
8 7 8 12 10 10 9 9 7 7 9 7 7 7 8 8 9 9 10 9 10 11 11 12 13 14 13 11 10 13 12 13 13 10 7 7 6 9 14 14 13 15 15
8 8 12 12 11 11 9 9 7 7 6 7 7 6 6 7 7 7 8 8 9 9 10 10 11 12 12 10 9 11 13 13 11 6 7 9 7 13 11 12 10 10 11
7 6 8 13 12 11 10 9 8 5 8 6 6 5 5 5 6 6 6 7 7 8 9 9 10 11 12 10 9 10 12 13 5 6 6 7 6 11 11 14 11 9 8
11 6 7 13 13 11 10 9 8 7 7 6 6 5 4 4 4 5 5 6 6 7 7 8 9 9 10 10 8 9 10 14 6 6 6 6 9 10 8 10 11 12 12
10 9 6 7 10 13 12 11 10 9 7 7 6 4 3 2 3 2 4 5 5 6 6 6 6 7 8 9 9 9 10 12 5 3 4 4 6 8 8 8 9 9 10
7 8 8 7 6 7 6 12 11 10 9 7 7 5 5 3 1 0 2 4 3 3 3 3 4 4 4 6 7 8 8 8 3 2 3 3 9 7 6 7 7 8 6
7 7 7 7 6 7 6 7 11 11 9 9 7 6 4 1 3 5 5 4 3 3 3 3 3 3 3 5 8 8 6 1 1 1 1 4 5 8 5 6 5 7 6
10 7 8 7 7 7 6 5 6 5 4 4 4 5 1 3 5 6 8 7 4 4 4 5 6 7 7 3 4 6 2 3 1 3 3 4 3 5 6 4 4 5 6
12 9 9 8 7 8 6 4 3 3 3 3 6 5 4 2 2 1 2 3 2 6 3 4 5 3 5 3 4 4 4 4 3 3 5 8 6 5 6 6 6 6 7
8 12 12 9 9 8 5 5 5 4 4 4 5 6 4 3 3 3 3 3 3 3 4 3 2 4 5 5 4 5 5 4 3 3 5 12 10 8 8 7 8 8 6
9 9 10 9 10 10 7 5 5 5 4 5 5 6 5 4 4 2 3 3 3 2 3 3 3 3 4 4 5 4 5 6 6 3 3 13 13 12 10 10 10 9 8
11 11 9 10 10 10 8 7 5 5 5 4 4 6 7 5 4 4 4 4 4 3 3 3 3 3 3 3 6 6 6 6 6 6 4 5 15 15 14 12 12 12 11
10 12 11 11 9 9 9 7 5 5 5 5 5 6 7 6 6 5 4 4 4 3 5 3 3 2 3 3 5 5 5 7 6 6 5 5 6 15 16 15 14 13 13
12 12 12 11 10 9 8 6 5 5 5 5 5 5 7 7 7 5 4 4 4 3 2 2 3 3 3 3 4 5 5 5 7 6 5 5 5 5 11 18 16 15 15
14 14 12 9 11 10 8 6 6 6 5 5 4 5 7 7 7 6 5 5 5 3 3 2 2 2 2 4 5 5 6 6 7 6 7 7 7 6 4 13 19 18 16
13 14 14 12 11 9 5 4 2 3 4 4 5 5 7 5 7 6 5 5 4 3 3 2 3 1 3 4 6 7 8 7 5 5 7 6 6 6 6 6 5 6 18
9 12 13 13 9 8 3 3 3 4 3 4 5 7 7 6 7 6 5 5 4 5 5 4 2 3 3 2 3 4 5 5 5 5 4 5 5 6 6 5 4 4 6
13 14 12 14 11 10 7 4 4 4 4 3 4 6 7 7 7 6 6 6 6 4 5 4 4 1 2 2 1 1 5 6 4 4 3 3 6 3 5 6 6 6 6
12 14 14 14 13 11 8 3 2 2 1 1 3 4 6 7 7 7 7 6 6 5 5 5 5 6 4 1 4 2 4 3 4 4 3 3 4 3 5 5 6 6 7
15 11 13 13 12 11 10 7 8 6 6 4 4 3 5 6 7 7 7 7 7 5 6 6 5 5 4 5 1 5 3 2 3 7 3 4 5 4 6 5 5 7 7
12 12 11 12 12 11 12 10 9 7 5 3 2 5 5 5 7 7 7 7 7 5 6 7 5 6 5 4 4 3 3 3 3 5 10 5 3 5 5 5 6 6 6
8 9 9 11 11 10 11 10 11 10 8 5 5 5 5 4 5 7 7 6 6 6 7 6 7 7 6 5 4 4 5 4 4 4 6 5 8 7 3 7 5 5 5
Wind_Direction
195 169 141 149 137 149 118 110 100 85 75 91 93 85 90 85 72 68 55 64 51 62 52 52 49 41 47 48 54 42 42 54 52 45 32 33 42 47 41 49 40 50 51
148 154 151 139 155 121 132 95 98 102 105 83 97 78 78 89 62 67 69 56 60 61 60 50 49 51 44 48 49 44 37 45 37 37 33 16 25 41 36 62 47 48 50
150 150 132 162 144 130 135 131 107 103 105 111 102 85 79 67 76 74 56 60 69 56 53 50 46 46 51 49 52 40 47 57 38 44 31 5 332 43 41 58 54 43 46
149 138 147 152 150 136 133 133 120 122 94 96 88 81 83 81 66 67 61 64 63 57 56 52 49 45 49 56 52 43 52 55 49 35 9 360 347 39 44 41 46 52 41
135 139 155 155 145 148 150 141 130 112 116 104 94 88 85 72 69 65 69 56 51 50 55 48 47 45 49 60 63 42 47 47 45 37 9 350 1 40 36 41 28 33 37
145 146 155 160 154 151 154 149 136 141 113 118 100 106 77 81 68 63 62 62 57 51 43 52 48 47 51 62 64 52 33 52 42 23 16 9 355 38 42 31 29 27 35
148 158 147 164 162 161 159 156 156 142 144 121 128 120 97 105 86 83 54 60 54 47 44 39 48 45 46 54 52 45 47 43 48 29 16 5 356 34 24 41 40 34 46
152 160 162 168 166 169 167 166 168 163 158 158 143 127 117 117 95 65 62 50 42 41 43 40 34 38 39 43 42 32 32 45 48 32 13 1 12 27 31 21 24 33 38
156 157 157 172 167 176 176 174 177 178 178 173 171 154 143 112 125 94 39 36 32 28 30 33 31 22 27 28 28 24 23 43 56 26 5 345 12 37 24 15 15 14 12
164 166 164 176 162 169 180 182 184 185 189 191 193 197 201 215 216 271 345 345 0 4 7 7 9 6 4 351 353 358 6 41 27 19 359 327 358 17 22 21 9 6 11
175 175 171 178 171 170 181 193 188 191 195 200 203 209 218 239 276 284 262 273 305 310 308 335 348 348 332 341 321 311 356 358 339 278 290 305 339 342 8 6 7 342 6
187 193 184 183 176 173 184 196 176 191 191 199 218 234 240 247 257 242 258 263 271 277 296 303 314 322 348 334 306 318 315 286 251 237 244 257 304 318 326 340 325 328 336
188 187 192 188 178 178 189 182 187 198 187 214 219 227 229 251 272 270 268 291 312 286 323 319 318 314 311 298 309 297 286 281 258 248 252 250 265 287 301 304 301 305 308
181 185 191 190 181 190 186 182 192 189 194 212 221 223 203 215 218 233 230 244 241 259 275 277 293 295 296 297 281 300 294 278 268 258 253 255 257 268 279 282 284 283 292
193 194 182 175 183 187 185 185 187 207 196 212 205 208 197 210 225 222 242 232 233 233 229 241 248 266 290 303 299 286 289 284 277 263 250 252 254 262 273 278 276 278 278
197 198 187 182 182 170 185 186 189 196 208 202 209 213 203 207 210 219 236 237 247 217 236 232 235 252 274 287 293 290 286 282 271 263 248 252 253 253 263 270 273 272 273
199 196 189 187 183 176 187 188 187 199 187 199 212 217 214 209 214 216 226 242 242 233 243 243 253 264 287 301 286 284 280 276 275 269 260 235 253 256 254 259 267 270 270
193 184 189 191 186 187 184 188 193 195 190 204 205 208 216 218 216 223 227 236 236 233 223 237 250 285 279 274 278 279 277 271 268 266 261 251 236 241 255 253 255 262 268
190 186 186 183 183 190 191 187 192 199 201 214 211 212 224 223 218 212 222 238 234 233 235 234 271 211 289 292 283 276 271 262 254 265 253 250 240 239 231 248 252 257 261
187 185 186 186 186 186 180 166 172 211 227 226 226 224 227 227 228 214 231 238 230 237 256 230 238 246 243 269 292 290 277 269 255 245 254 256 242 234 231 233 245 261 258
178 175 183 179 190 169 151 158 198 209 213 232 225 231 228 227 228 218 226 231 225 220 228 221 237 238 278 254 321 310 293 279 280 260 258 252 261 249 238 235 233 240 260
181 187 183 189 184 189 186 178 167 168 216 209 216 230 226 226 226 220 217 224 219 226 234 221 193 265 268 224 251 315 335 330 339 310 313 287 275 283 264 243 243 242 236
184 186 187 188 185 189 179 124 91 46 345 275 244 250 234 224 228 220 221 218 223 209 227 213 194 187 231 271 208 170 328 289 317 331 320 327 330 300 281 268 262 256 248
200 185 184 185 183 189 172 177 175 188 211 220 207 217 250 231 236 231 228 220 221 210 224 221 209 198 166 228 223 230 235 149 310 325 321 312 325 293 291 286 273 264 253
186 184 184 182 186 187 181 190 192 206 215 209 218 246 254 261 247 243 229 224 225 212 226 216 214 202 195 192 187 184 226 224 220 230 294 308 269 244 247 255 258 264 261
180 178 176 179 193 185 182 193 195 203 210 219 233 246 247 248 254 241 236 227 226 217 220 222 218 213 211 217 198 196 204 198 196 196 243 280 280 300 258 265 267 265 262